sat.trackr.live / text

‹ back to catalog

STARLINK-35574

NORAD 66111 · 2025-236AB

PAYLOAD ACTIVE UNKNOWN

§ Identity

Operator
Country
US
Launch date
2025-10-19
Launch site
AFWTR
Launch vehicle
Mass (kg)
RCS (m²)

Purposes: comms

External: N2YO · Heavens-Above · Gunter

§ Orbital elements

Epoch: 2026-09-20T07:18:15.223968Z

Period
93.85 min
Inclination
53.1586°
Eccentricity
0.0001438
Mean motion
15.34402850 rev/d
Perigee alt
461.7 km
Apogee alt
463.7 km
Semi-major
6,840.8 km
B*
3.0188e-4
RAAN
278.3017°
Arg perigee
81.3765°
Mean anomaly
278.7401°
Rev number
5,270

§ Raw data

STARLINK-355741 66111U 25236AB  26263.30434287  .00009838  00000+0  30188-3 0  99932 66111  53.1586 278.3017 0001438  81.3765 278.7401 15.34402850 52704

JSON: /api/v1/satellites/66111 · /tle

For live sub-satellite position, see the globe view (requires WebGL).

§ Visibility from observer

Set your observer location to see the next 7 days of passes ≥ 10°. The values pass through the URL so the page stays shareable.

No JS? Fill the form by hand. The geolocation button needs JavaScript.